This is the latest recevied weather packets stored in our database for station/object XE2G-31. If no packets are shown the sender has not sent any weather packets the latest 10 day(s).
| Time | Temp. | Humidity | Pressure | Rain* | Wind** | Luminosity | Snow |
|---|---|---|---|---|---|---|---|
| 1778027569 | 28.89° C | 45% | 867 hPa | - | - | - | - |
| 1778026622 | 29.44° C | 43% | 866 hPa | - | - | - | - |
| 1778025675 | 30° C | 45% | 866 hPa | - | - | - | - |
| 1778024728 | 30° C | 44% | 866 hPa | - | - | - | - |
| 1778023782 | 30.56° C | 40% | 866 hPa | - | - | - | - |
| 1778022835 | 31.11° C | 41% | 866 hPa | - | - | - | - |
| 1778021888 | 31.67° C | 42% | 866 hPa | - | - | - | - |
| 1778020941 | 31.67° C | 41% | 866 hPa | - | - | - | - |
| 1778019994 | 31.67° C | 42% | 866 hPa | - | - | - | - |
| 1778019048 | 31.67° C | 43% | 866 hPa | - | - | - | - |
| 1778018100 | 32.22° C | 43% | 867 hPa | - | - | - | - |
| 1778017154 | 32.78° C | 42% | 867 hPa | - | - | - | - |
| 1778016207 | 32.78° C | 41% | 867 hPa | - | - | - | - |
| 1778015260 | 32.78° C | 41% | 867 hPa | - | - | - | - |
| 1778014313 | 33.33° C | 42% | 867 hPa | - | - | - | - |
| 1778013366 | 33.33° C | 43% | 867 hPa | - | - | - | - |
| 1778012420 | 31.67° C | 44% | 868 hPa | - | - | - | - |
| 1778011473 | 33.89° C | 41% | 868 hPa | - | - | - | - |
| 1778010526 | 32.78° C | 40% | 868 hPa | - | - | - | - |
| 1778009579 | 32.22° C | 37% | 868 hPa | - | - | - | - |
| 1778007685 | 33.33° C | 42% | 868 hPa | - | - | - | - |
| 1778006739 | 34.44° C | 40% | 868 hPa | - | - | - | - |
| 1778005792 | 32.78° C | 40% | 868 hPa | - | - | - | - |
| 1778004845 | 34.44° C | 41% | 869 hPa | - | - | - | - |
| 1778003898 | 33.89° C | 31% | 869 hPa | - | - | - | - |
* Rain since midnight (hover to see other rain measurements)
** Current wind speed in m/s (hover to see current wind gust speed)